GFSNGP_sfc_dewp_000.txt.gz
Dewpoint
33 34 35 34 34 34 32 30 28 28 28 30 34 34 35 36 37 38 38 39 39 39 39 40 39 40 35 36 36 35 30 30 32 33 32 31 29 30 32 31 30 30 29 28
32 35 36 34 34 33 32 31 30 30 28 37 38 38 38 38 38 38 39 39 38 40 40 39 39 39 36 36 37 37 37 39 38 36 36 36 36 36 34 31 28 25 25 25
28 33 33 30 30 30 29 30 29 28 31 38 39 39 39 39 39 39 39 37 38 40 40 39 38 36 37 37 39 39 39 39 40 40 38 37 36 34 28 25 23 22 22 22
28 31 25 30 32 31 30 31 32 36 37 38 39 39 40 40 39 39 39 38 39 40 38 37 37 37 37 38 39 38 38 38 37 37 35 31 27 25 22 21 20 20 21 23
27 29 29 30 31 30 29 30 37 37 39 39 40 40 38 37 40 40 39 40 40 38 37 37 36 36 37 36 37 33 26 26 26 26 25 24 21 20 20 19 19 19 22 24
29 26 24 26 29 36 36 28 38 39 39 39 39 36 37 40 40 37 39 38 36 35 35 35 36 32 24 23 24 24 26 24 24 25 23 21 20 20 19 18 19 23 25 24
19 23 25 30 32 36 23 26 35 38 39 40 40 40 41 41 37 38 36 35 35 35 35 35 33 29 20 21 22 23 25 25 24 24 22 21 19 18 18 19 22 17 16 19
26 27 25 35 35 31 34 36 37 37 39 41 41 40 38 36 37 35 34 34 34 35 34 34 21 19 18 19 23 24 25 24 24 24 23 19 18 18 19 21 19 17 12 15
28 28 33 35 36 37 39 37 37 40 42 40 39 37 37 34 34 34 34 34 34 34 32 30 19 21 21 23 25 25 25 25 25 24 22 19 18 19 19 19 17 16 19 16
32 32 33 35 36 37 37 39 43 43 43 41 39 39 34 34 33 33 33 32 33 34 30 29 23 22 24 25 24 24 24 25 25 24 22 20 21 19 19 16 15 21 19 19
36 36 36 36 36 39 41 43 40 40 39 39 36 33 34 32 32 32 32 33 34 36 35 28 23 23 23 24 25 24 25 25 25 24 21 21 21 20 21 20 19 18 17 23
34 36 36 37 41 39 38 38 38 37 35 31 31 34 33 31 31 31 32 36 34 34 25 23 24 23 25 26 24 24 24 24 22 21 20 20 20 21 23 23 22 22 23 23
39 40 40 41 40 40 38 39 38 35 31 29 35 34 32 31 31 33 34 32 34 27 23 24 24 23 23 25 25 23 22 24 22 21 20 19 17 18 13 17 21 22 21 21
39 40 39 39 37 37 33 33 32 29 33 34 33 32 32 32 32 31 30 29 24 23 24 25 23 21 24 25 24 19 18 19 19 20 18 18 10 11 10 9 7 11 19 20
40 39 38 37 33 29 29 30 31 31 33 34 34 33 32 31 28 26 25 25 24 23 25 26 24 23 27 27 26 25 24 19 14 16 16 12 10 10 8 7 8 9 11 18
35 34 33 32 30 31 30 30 32 32 33 33 32 31 30 27 25 25 28 28 25 25 25 22 19 25 27 27 26 24 23 20 18 18 16 16 14 10 11 8 8 8 9 16
33 32 34 30 28 28 29 31 30 30 32 32 30 26 25 24 25 25 26 25 23 20 20 23 26 28 27 27 25 23 19 22 23 22 15 17 11 9 9 6 5 7 13 15
31 28 27 27 27 30 30 30 28 28 29 29 25 21 23 19 22 25 24 23 21 19 27 26 26 27 23 26 24 20 16 21 22 14 16 10 9 12 6 7 4 8 14 14
28 28 28 28 29 30 30 30 28 27 27 31 27 24 22 21 26 24 22 20 22 21 25 20 27 26 25 27 25 16 14 15 15 17 12 9 7 7 5 3 6 8 10 13
29 30 31 29 29 28 28 27 25 27 30 29 27 26 23 26 27 25 25 22 26 27 25 25 26 25 26 24 24 19 19 14 16 13 6 7 7 6 6 10 10 8 7 10
29 29 28 27 27 24 32 31 30 31 31 29 29 25 25 22 22 24 18 24 25 26 25 26 25 26 28 23 22 17 23 23 18 10 6 8 6 3 3 8 11 8 7 10
29 27 26 25 25 27 28 32 28 30 31 29 23 25 23 24 19 17 20 25 27 27 26 26 26 27 26 24 23 25 25 24 19 8 9 10 9 4 2 8 9 7 6 7
30 29 28 26 27 27 30 32 29 32 31 29 25 26 27 25 22 18 21 25 26 26 26 26 27 26 25 25 26 25 25 24 17 13 12 11 8 2 1 7 9 6 6 8
28 28 27 27 24 30 30 29 26 30 31 27 28 28 28 24 21 25 27 26 27 27 27 27 27 25 24 25 25 26 25 23 15 14 15 13 11 5 1 6 9 6 7 7
27 27 26 25 26 28 28 28 29 29 28 28 29 29 29 29 27 21 25 25 27 27 26 25 27 26 25 25 25 25 25 17 12 13 13 11 11 5 2 4 6 7 5 5
28 28 28 28 28 30 31 28 30 29 29 28 28 30 30 27 27 26 25 27 25 25 25 26 27 26 26 25 23 25 25 22 21 10 7 7 8 6 5 2 1 6 6 4
28 24 26 28 28 30 29 30 30 28 30 30 30 31 29 28 26 25 24 25 26 25 26 26 27 27 27 25 24 22 19 23 21 12 12 11 7 10 8 5 5 5 5 3

GFSNGP_sfc_dewp_003.txt.gz
Dewpoint
32 32 34 34 34 34 33 32 30 30 29 30 32 36 37 37 37 38 38 38 39 39 38 39 40 39 38 36 36 37 36 31 32 33 32 32 36 37 35 34 32 31 30 27
30 34 35 34 34 34 34 33 32 30 29 30 37 39 39 39 39 38 38 39 39 37 38 40 39 38 36 36 37 38 37 38 39 39 39 39 38 38 37 37 35 28 25 24
23 32 30 25 29 32 31 29 28 27 29 36 37 38 39 39 39 38 38 39 37 37 39 39 37 36 36 36 38 37 37 38 39 38 39 38 38 37 36 29 25 23 23 24
23 31 21 27 31 30 29 30 30 31 36 37 38 39 40 40 40 38 39 36 35 39 39 36 36 35 36 36 36 37 34 29 29 31 30 29 27 24 23 22 21 21 23 25
30 28 27 30 29 29 28 27 33 36 37 38 36 39 37 39 39 37 34 34 37 38 36 35 34 33 28 26 27 26 26 26 26 28 25 24 22 21 21 20 20 22 25 25
28 26 24 27 27 32 35 29 36 38 37 35 37 35 36 41 38 38 36 37 36 34 34 34 34 27 27 25 24 24 27 26 25 25 24 22 21 19 19 20 22 24 23 23
28 26 26 30 31 34 28 28 34 37 37 36 37 39 41 39 37 36 36 35 35 34 34 34 31 24 20 21 23 23 25 25 24 25 24 22 19 20 20 22 22 18 16 18
27 25 23 33 35 32 35 36 36 37 37 38 40 39 38 37 37 35 34 33 33 33 34 33 23 21 19 19 23 24 24 24 24 25 22 19 20 20 20 20 19 16 12 15
29 28 32 33 36 37 38 37 37 38 42 42 39 38 36 35 35 34 33 33 32 32 33 31 23 21 21 22 23 24 24 24 24 24 22 20 20 19 19 19 17 16 20 18
32 34 33 36 37 37 38 39 43 39 38 37 36 34 32 33 34 32 32 31 31 33 34 34 32 22 22 24 23 24 23 24 25 23 21 21 20 20 19 17 16 20 18 18
35 37 38 37 38 41 42 40 38 37 37 37 34 31 30 31 32 31 30 31 34 34 33 32 30 23 22 23 24 23 24 24 23 23 22 21 20 21 22 21 18 18 16 20
36 37 37 38 41 41 39 37 37 36 36 34 30 29 30 33 32 30 29 32 34 32 32 27 23 23 22 24 24 24 24 24 22 20 20 21 19 20 22 22 22 21 21 20
39 40 43 42 36 35 35 35 37 37 35 30 31 33 33 32 32 31 32 33 31 31 25 23 23 23 22 23 23 22 21 23 21 20 21 20 18 17 10 15 19 20 20 19
40 42 40 38 36 34 32 31 29 28 30 32 33 33 32 32 31 29 28 26 26 22 22 24 23 21 25 25 23 18 17 17 14 14 14 16 10 11 5 6 5 11 16 18
39 40 38 37 36 30 28 30 30 30 31 31 31 32 31 31 30 27 26 26 26 24 23 24 23 24 25 27 25 24 25 19 11 12 11 10 12 7 5 5 7 8 9 14
35 35 35 31 31 29 27 28 29 30 29 29 30 30 30 28 26 26 26 26 25 23 25 18 19 26 28 28 27 24 22 19 15 18 12 12 10 7 10 6 5 7 5 11
31 31 28 24 24 25 26 28 30 30 29 29 28 27 28 27 25 23 24 22 17 16 25 26 24 27 26 27 28 23 19 19 22 18 14 12 7 7 6 3 3 6 5 10
28 27 26 25 25 26 27 29 30 29 28 29 28 30 28 27 24 21 22 19 15 23 25 21 19 25 24 27 25 19 14 18 20 12 11 7 7 7 4 4 7 7 6 10
28 28 29 29 29 28 28 29 28 25 25 24 24 29 27 26 21 26 21 19 19 24 24 24 26 25 26 27 27 22 14 12 12 13 9 5 4 5 3 2 7 4 6 9
28 29 30 30 29 27 27 26 29 30 30 29 26 24 27 25 21 24 22 20 21 25 26 24 25 24 24 25 23 19 16 16 18 12 3 3 -0 -1 -1 3 9 4 3 3
25 27 27 26 26 25 21 25 28 29 30 31 29 29 27 24 19 18 21 25 23 25 25 25 25 25 27 25 25 16 22 23 20 7 3 2 -2 -1 -2 -2 4 3 3 4
27 26 25 25 25 26 26 24 26 31 30 31 31 29 20 24 24 24 25 25 26 26 26 25 25 25 25 24 24 24 24 23 21 8 8 4 -2 -3 -3 -3 3 3 3 4
27 27 27 25 25 26 25 24 26 28 28 31 31 27 26 26 26 25 24 22 26 26 26 25 26 27 24 24 24 25 24 23 22 9 10 10 5 -3 -4 -2 -0 2 1 4
27 27 27 27 24 22 23 27 25 25 25 26 25 29 28 27 25 26 26 23 25 23 26 27 27 25 23 21 24 24 24 24 21 8 10 11 5 1 -5 -4 -0 -2 -0 3
26 26 26 24 25 27 27 27 25 24 26 25 26 28 28 29 27 23 20 18 23 25 25 25 19 18 16 22 22 24 24 23 16 12 8 8 9 8 -4 -4 -4 -4 -3 1
27 28 29 28 28 28 28 29 29 30 28 27 21 25 28 29 28 26 25 25 24 24 25 25 24 19 18 19 21 19 16 19 20 14 8 7 6 12 6 -1 -4 -4 -2 -0
26 23 28 28 28 28 30 31 30 31 29 24 21 25 29 28 27 26 24 25 25 24 24 25 25 24 14 12 12 14 19 17 14 16 13 13 12 13 11 10 5 1 -2 -4

GFSNGP_sfc_dewp_006.txt.gz
Dewpoint
31 31 32 32 33 33 32 31 30 29 29 31 32 32 37 38 38 39 38 39 39 39 39 38 39 40 39 37 37 38 37 37 35 37 37 36 36 37 36 36 36 37 36 30
30 33 33 32 33 34 34 33 33 33 32 33 32 37 38 38 39 39 39 38 39 37 37 39 40 38 36 36 37 38 37 37 39 39 39 37 37 37 37 36 36 37 32 24
23 30 29 22 25 30 31 31 30 26 28 31 35 37 36 37 39 39 38 36 33 32 34 37 37 36 35 36 37 37 36 31 31 33 35 35 36 36 34 30 25 23 23 24
24 30 23 27 30 29 29 29 29 30 30 35 37 37 37 40 39 37 36 36 35 33 35 36 35 35 34 32 31 29 29 30 31 30 28 26 24 23 23 22 21 21 23 25
29 28 28 30 29 28 28 26 30 32 35 36 36 36 35 38 38 38 38 37 35 36 35 34 34 29 25 25 25 27 31 31 30 25 24 24 22 21 21 20 21 23 25 23
29 26 23 27 28 31 35 27 35 37 35 35 36 33 36 39 39 37 34 35 36 35 34 33 34 30 27 28 26 24 27 25 24 25 24 22 20 20 20 21 23 22 20 21
30 28 27 30 31 34 28 28 35 35 37 36 35 38 37 37 34 30 34 35 35 34 32 34 34 27 24 22 22 24 24 24 24 24 23 20 20 20 20 21 21 17 15 18
26 26 22 31 34 31 34 38 37 37 37 40 38 37 36 34 32 30 34 34 33 32 32 34 33 23 23 25 22 23 24 23 23 24 22 20 20 20 19 19 18 16 12 15
32 28 32 33 37 36 37 38 38 38 39 38 35 34 33 32 31 30 34 33 32 31 32 33 31 25 32 32 25 23 23 22 23 24 22 20 20 19 19 19 16 16 20 18
33 34 37 39 38 39 41 41 39 39 38 37 35 36 33 32 30 30 32 31 30 31 33 32 33 33 26 23 23 23 23 23 23 23 22 20 20 20 20 17 16 19 18 17
35 38 38 38 40 40 39 40 39 38 37 35 33 33 32 30 31 32 32 30 31 32 32 32 31 29 25 22 23 23 23 24 24 23 22 22 21 19 22 21 18 19 16 16
33 36 41 41 41 41 39 37 37 36 34 35 34 30 32 32 32 32 31 31 31 32 31 31 28 24 24 23 24 23 24 24 21 20 19 21 19 19 21 21 21 20 20 19
39 42 41 42 40 38 36 34 34 33 32 29 30 32 31 31 31 32 32 31 30 28 26 23 24 24 23 23 22 21 20 21 19 19 18 17 16 16 11 14 19 18 19 19
39 40 38 36 35 35 34 30 30 30 30 31 31 30 30 30 31 30 30 27 25 25 24 24 24 24 26 26 24 17 16 16 17 15 13 13 6 9 6 5 5 9 15 17
38 38 37 37 34 29 26 26 25 26 28 30 30 29 30 29 29 29 28 26 27 26 25 26 24 25 27 28 26 24 24 19 10 8 8 8 6 6 4 4 4 8 12 12
36 35 32 25 25 25 25 25 24 26 28 29 29 29 29 29 28 28 26 25 24 24 25 23 25 26 27 28 28 25 22 19 13 13 11 10 8 6 8 6 7 11 8 9
30 26 25 24 25 25 25 25 26 28 29 29 28 25 29 28 25 26 23 20 16 17 22 25 21 25 26 28 27 21 17 17 17 15 12 10 6 5 4 6 9 10 5 6
26 26 25 26 27 28 27 26 26 27 27 28 24 25 29 27 25 25 18 18 16 24 25 21 20 24 23 26 27 24 19 14 14 11 10 6 5 5 1 4 7 7 6 8
26 27 28 29 30 29 29 28 27 26 23 30 29 27 28 28 25 22 23 25 23 24 23 22 25 24 25 25 25 23 21 14 11 12 7 4 1 1 -2 -4 2 1 3 7
25 25 26 26 27 25 26 26 25 25 26 28 31 30 28 29 28 21 23 24 23 24 25 24 24 24 24 24 23 22 15 15 17 9 -0 1 -4 -5 -6 -3 3 -0 -1 1
25 26 25 24 25 24 22 23 22 23 25 23 30 30 30 30 23 21 22 24 25 24 25 25 25 25 26 25 24 23 22 23 14 6 2 2 -1 -4 -7 -9 -7 -4 -3 0
26 25 23 23 23 25 25 24 23 22 23 28 30 30 31 23 23 22 22 26 27 26 25 25 24 25 25 24 24 24 24 24 20 10 3 3 4 0 -4 -9 -7 -3 -4 -1
27 26 26 23 23 26 26 24 23 22 23 25 29 30 29 25 23 20 21 23 23 26 25 19 24 26 26 22 23 24 24 23 22 19 13 11 8 7 -2 -4 -7 -5 -6 -4
26 26 26 26 23 22 23 27 25 25 23 23 24 30 28 23 23 21 22 26 25 21 16 19 25 24 25 22 22 23 24 23 23 14 7 3 -1 3 -0 -6 -5 -8 -9 -7
25 25 24 22 24 27 27 27 27 27 25 25 29 28 25 25 22 19 17 18 20 19 19 22 24 19 18 22 23 20 19 23 23 19 7 4 5 3 2 -4 -1 -0 -7 -7
26 27 28 27 27 28 27 27 29 30 30 30 28 24 20 25 25 25 26 25 19 18 22 22 23 21 16 16 22 23 18 17 16 17 13 12 10 12 12 10 4 3 2 3
25 23 25 26 27 27 27 29 31 31 32 32 29 18 24 28 28 26 25 25 24 22 16 21 20 22 23 13 12 12 13 15 15 15 14 14 12 11 14 12 11 7 3 1

GFSNGP_sfc_dewp_009.txt.gz
Dewpoint
31 32 32 31 31 32 32 33 31 30 29 31 32 34 34 38 38 38 38 40 39 35 34 35 37 38 37 37 37 39 38 38 38 39 38 38 35 34 35 35 34 35 36 34
32 33 32 32 32 33 33 33 33 33 33 34 35 36 38 37 37 37 39 37 35 34 33 33 37 36 36 36 37 39 38 32 31 31 31 32 33 34 34 31 27 25 24 24
27 31 31 27 26 30 31 32 31 28 29 32 34 37 36 36 37 38 35 34 32 29 32 36 36 35 34 35 36 35 31 29 30 32 28 27 25 24 24 24 24 23 24 25
31 31 24 28 30 30 31 30 30 29 31 34 36 37 37 38 37 37 36 33 29 30 35 37 35 33 33 32 31 30 30 31 32 28 25 25 24 23 22 22 22 22 24 23
29 28 29 29 30 29 30 27 31 35 36 37 38 38 37 38 38 36 34 34 31 35 37 35 32 35 28 27 27 28 29 29 25 25 24 24 22 21 22 22 22 22 20 20
31 28 26 30 28 32 34 29 36 37 38 38 38 35 37 37 37 36 32 30 31 36 35 32 33 35 33 30 30 28 26 24 24 24 23 22 22 21 21 21 20 20 19 20
30 29 31 32 32 33 30 33 38 37 38 38 37 38 38 38 36 33 33 30 34 36 32 31 34 35 31 26 25 27 25 24 22 22 23 23 21 21 20 19 23 25 25 25
28 28 25 31 33 34 38 41 39 39 40 38 39 37 35 35 33 30 31 31 33 34 31 32 34 32 26 27 31 33 25 23 22 23 23 20 20 20 19 21 23 24 24 24
32 32 33 34 36 40 40 40 40 40 39 38 36 34 31 34 32 32 31 31 33 32 31 32 34 32 29 32 33 28 24 24 23 23 22 21 20 20 19 20 22 22 20 20
34 37 36 38 40 42 41 40 39 39 38 37 34 33 33 32 32 31 30 31 32 31 31 32 34 32 32 31 27 24 23 24 24 24 23 23 22 22 20 23 22 20 20 19
35 37 37 38 41 42 40 40 38 37 36 36 35 33 32 31 31 31 31 31 32 32 32 33 33 32 27 24 24 22 23 23 24 25 24 22 23 21 22 24 22 21 19 19
35 38 40 40 42 42 38 37 35 35 33 31 32 31 31 30 31 31 31 31 30 29 30 27 26 24 25 25 24 24 23 24 26 25 24 22 19 20 21 21 22 19 19 20
39 42 42 41 39 37 34 33 30 28 26 26 28 31 31 30 31 32 30 29 28 26 26 25 24 23 25 28 28 27 26 26 25 23 23 22 22 21 20 20 19 18 18 18
39 40 37 35 34 32 27 25 27 25 25 27 29 30 30 31 31 30 28 29 28 26 27 25 25 26 28 28 28 26 26 22 25 24 24 23 23 22 20 20 19 18 17 16
38 38 37 30 26 25 26 25 25 24 24 26 28 30 30 30 30 30 29 29 27 26 25 25 25 25 27 26 27 27 27 25 26 25 25 23 23 22 21 20 19 17 16 15
32 25 26 27 26 26 26 26 25 24 24 26 28 30 30 30 30 31 30 28 25 26 26 27 26 26 26 24 25 26 26 24 21 25 24 23 22 21 20 19 18 17 15 15
28 27 27 26 27 27 27 28 27 26 27 28 29 29 29 30 29 28 29 26 24 24 26 27 26 24 25 24 25 25 25 25 21 24 23 23 22 21 20 19 18 17 16 16
27 27 27 28 28 28 29 30 30 29 28 29 28 29 29 28 28 28 29 26 24 26 27 28 26 25 25 27 26 26 26 25 25 24 24 23 22 20 19 18 18 17 16 15
24 25 26 26 28 29 29 28 28 28 27 27 26 27 30 30 29 29 28 26 26 26 26 26 26 26 25 27 26 26 26 26 25 24 23 20 22 20 19 19 18 18 17 15
25 26 28 27 27 26 27 27 27 27 28 27 25 26 29 31 31 31 27 26 28 27 28 26 26 26 27 26 26 25 26 26 25 25 24 22 22 22 20 15 17 18 18 17
26 27 27 26 26 26 24 25 25 26 28 26 23 25 29 32 33 29 26 26 28 28 27 27 26 26 26 26 25 27 26 26 27 26 24 23 21 22 21 19 19 19 19 18
27 28 26 25 25 26 27 28 28 26 25 25 25 28 30 31 32 28 26 27 29 26 27 27 26 26 28 28 25 27 26 27 27 27 25 23 22 22 22 20 19 19 19 18
27 27 27 26 25 28 28 27 26 26 25 27 28 29 29 31 32 28 27 29 28 27 28 29 25 28 28 30 28 27 27 26 26 26 25 24 23 22 21 20 20 19 19 18
27 28 28 28 26 25 26 28 29 28 28 29 29 29 29 30 30 29 29 28 27 28 28 28 28 26 24 29 28 28 27 27 27 27 25 19 22 21 20 20 18 19 17 14
27 27 26 26 27 28 28 29 28 29 29 30 32 31 31 30 30 30 28 29 26 27 28 24 26 26 28 28 28 26 26 26 27 27 26 25 23 22 22 21 18 19 18 16
28 28 28 28 27 28 29 29 29 29 29 30 32 33 31 29 30 29 28 27 26 24 28 28 28 28 28 27 26 26 26 26 25 25 24 25 24 23 22 22 20 19 18 17
27 24 27 28 28 28 29 29 30 29 30 30 31 33 29 30 31 31 29 28 28 28 28 28 28 28 28 27 26 25 24 24 22 23 24 23 23 23 22 22 22 22 20 17

GFSNGP_sfc_dewp_012.txt.gz
Dewpoint
29 28 28 28 27 26 26 29 30 29 26 28 29 30 33 35 37 36 37 39 38 37 33 30 30 36 36 34 34 35 35 34 34 34 32 31 31 30 30 30 26 25 25 25
30 30 28 29 27 26 28 30 30 29 29 30 31 34 36 36 36 37 38 36 35 33 27 28 32 36 32 30 32 36 34 33 31 31 30 29 29 28 26 23 23 24 24 24
33 31 31 32 30 26 27 30 30 29 29 32 34 36 37 37 37 37 36 35 33 28 26 31 35 32 29 30 32 33 32 30 29 30 29 27 24 20 21 23 24 24 24 24
35 34 29 28 29 29 30 29 28 28 32 35 36 37 37 38 38 37 36 30 27 27 28 33 34 29 31 29 29 30 30 29 29 27 26 23 20 20 23 23 23 23 24 23
32 28 28 28 29 30 29 29 32 34 36 36 37 37 36 38 39 38 36 31 29 28 30 34 33 30 31 31 29 29 28 28 27 26 24 19 19 22 23 23 23 22 22 22
34 30 28 31 30 32 34 29 36 39 40 39 39 36 37 38 38 34 32 29 27 27 30 33 33 31 32 30 28 26 27 28 26 25 22 19 22 23 24 22 21 22 24 24
32 32 31 32 32 35 32 36 40 40 40 39 37 38 39 40 32 29 28 27 27 26 28 31 31 31 31 29 26 23 26 27 26 24 21 21 23 24 23 22 24 28 29 27
34 30 29 33 32 36 37 40 41 40 40 39 39 38 34 30 28 25 24 24 25 26 26 28 29 30 30 27 24 26 30 29 26 23 21 20 23 23 23 23 25 27 29 28
32 34 34 36 37 38 41 41 40 40 38 39 34 31 27 25 24 24 25 25 25 25 27 27 27 28 30 28 29 30 31 27 25 24 23 23 23 24 22 22 25 25 21 22
36 35 35 37 38 41 42 41 40 38 34 31 30 28 24 24 24 26 25 24 26 26 24 25 28 30 31 33 35 32 28 25 25 24 24 24 23 22 20 23 24 21 20 19
36 37 38 36 41 42 41 40 38 31 31 30 23 22 22 23 23 22 23 25 26 24 25 24 26 28 29 26 25 23 23 23 24 26 25 24 22 20 22 23 23 21 19 19
37 39 40 40 39 41 41 34 31 30 24 21 21 22 22 21 22 23 25 27 25 25 25 25 25 28 25 26 26 26 24 24 27 27 27 25 21 20 23 22 20 19 18 20
39 41 39 40 40 37 31 30 24 24 23 23 23 21 22 23 24 27 26 25 25 27 27 27 28 25 28 30 30 30 28 28 27 26 25 24 23 22 21 22 20 19 17 17
39 39 38 37 35 30 26 26 27 25 23 21 21 23 24 24 25 25 26 29 30 29 28 26 26 28 28 27 27 30 29 27 27 26 25 25 24 23 23 22 21 21 18 15
38 38 36 31 28 26 26 24 23 19 20 23 24 26 27 27 27 28 30 31 30 30 27 25 27 28 25 25 24 25 25 25 29 28 27 26 25 24 23 21 21 19 18 14
31 30 27 24 22 21 20 19 20 23 24 23 25 27 27 28 28 29 30 31 31 28 28 30 30 27 25 24 22 23 23 25 26 25 25 24 23 22 21 21 20 19 17 16
28 24 21 19 16 18 21 23 24 24 27 27 29 32 30 31 31 31 30 31 32 30 30 31 30 25 24 23 23 23 24 23 25 24 23 23 23 22 22 21 20 19 19 19
18 18 20 21 22 24 26 27 29 29 29 30 32 31 30 30 32 33 33 32 32 30 31 30 29 25 24 23 25 23 26 27 25 24 24 24 24 22 22 21 20 19 20 18
19 21 23 25 27 28 28 28 30 31 32 32 32 31 31 31 32 34 33 32 31 29 30 31 27 26 24 26 25 24 25 27 26 24 26 24 25 24 23 23 22 21 20 18
22 24 27 28 30 30 31 32 33 32 31 32 32 30 31 31 32 33 33 32 32 31 32 29 28 28 28 26 26 23 26 28 26 27 27 25 25 24 24 22 22 21 21 21
26 28 32 33 32 33 31 32 31 31 32 31 30 30 30 32 33 33 32 31 33 33 31 28 28 24 23 25 25 28 29 29 29 28 27 26 25 25 24 24 23 23 21 21
27 32 33 32 32 32 33 34 33 32 31 31 30 30 30 32 33 33 34 32 32 30 30 30 27 27 25 27 26 31 28 28 29 29 28 27 25 24 24 24 23 23 22 22
28 29 30 32 32 31 32 32 32 32 31 31 31 31 31 32 32 32 30 35 32 32 31 32 30 28 28 32 32 31 30 29 29 28 28 27 25 25 24 24 23 23 22 21
29 30 30 32 34 32 31 29 32 34 32 33 32 32 33 33 33 34 33 32 29 31 32 34 31 28 28 32 32 31 30 30 29 30 29 26 27 26 25 24 23 23 23 21
33 31 31 32 31 29 28 28 29 30 30 32 31 32 34 35 32 34 34 33 31 30 33 30 28 28 31 32 31 30 28 28 29 29 28 29 28 27 26 25 24 24 23 22
30 30 29 30 31 29 29 29 28 30 31 32 32 34 33 34 33 33 34 32 33 30 32 33 32 32 32 31 30 29 28 27 27 26 26 27 27 27 26 25 25 24 24 23
30 30 30 31 31 31 31 30 32 31 32 32 31 33 33 33 33 33 32 33 33 32 32 32 32 30 30 30 29 28 28 28 26 25 25 25 25 25 25 25 25 25 25 24